{"data":{"norad_id":49750,"intl_designator":"2021-115AC","name":"STARLINK-3236","alt_names":[],"object_type":"PAYLOAD","status":"ACTIVE","operator":null,"country":"US","launch_date":"2021-12-02","launch_site_code":"AFETR","launch_vehicle":null,"mission":null,"orbit_class":"UNKNOWN","rcs_meters":null,"size_class":null,"mass_kg":null,"dimensions":null,"purposes":["comms"],"wikipedia_slug":null,"has_3d_model":false,"image_url":null,"decayed_at":null,"tle_current":{"epoch":"2026-05-25T00:52:05.354112Z","epoch_age_seconds":72267,"freshness":"FRESH","line1":"1 49750U 21115AC  26145.03617308 -.00000114  00000+0  10916-4 0  9998","line2":"2 49750  53.2133 166.3993 0001209  78.4284 281.6843 15.08832107247062","mean_motion":15.08832107,"eccentricity":0.0001209,"inclination_deg":53.2133,"raan_deg":166.3993,"arg_perigee_deg":78.4284,"mean_anomaly_deg":281.6843,"bstar":1.0916e-5,"rev_number":24706,"period_min":95.438053930542,"perigee_km":538.93114015679,"apogee_km":540.60388946847,"semimajor_km":6917.9045148126,"source":"CELESTRAK","updated_at":"2026-05-25T13:38:16.836845Z"}}}